This is the latest recevied weather packets stored in our database for station/object KN6WGU. If no packets are shown the sender has not sent any weather packets the latest 10 day(s).
| Time | Temp. | Humidity | Pressure | Rain* | Wind** | Luminosity | Snow |
|---|---|---|---|---|---|---|---|
| 1788353188 | 26.67° C | 83% | 1009.1 hPa | 0 mm | - | 55 W/m² | - |
| 1788352888 | 26.67° C | 83% | 1009.3 hPa | 0 mm | - | 53 W/m² | - |
| 1788352584 | 26.67° C | 84% | 1009.3 hPa | 0 mm | - | 50 W/m² | - |
| 1788352279 | 26.67° C | 84% | 1009.1 hPa | 0 mm | - | 49 W/m² | - |
| 1788351978 | 26.67° C | 84% | 1009.2 hPa | 0 mm | - | 47 W/m² | - |
| 1788351674 | 26.67° C | 84% | 1009.2 hPa | 0 mm | - | 59 W/m² | - |
| 1788351374 | 26.11° C | 85% | 1009.4 hPa | 0 mm | - | 61 W/m² | - |
| 1788351069 | 26.11° C | 85% | 1009.3 hPa | 0 mm | - | 66 W/m² | - |
| 1788350765 | 25.56° C | 86% | 1009.2 hPa | 0 mm | - | 58 W/m² | - |
| 1788350476 | 25.56° C | 87% | 1009.1 hPa | 0 mm | - | 39 W/m² | - |
| 1788350156 | 25.56° C | 88% | 1009.3 hPa | 0 mm | - | 31 W/m² | - |
| 1788349852 | 25.56° C | 88% | 1009.2 hPa | 0 mm | - | 28 W/m² | - |
| 1788349548 | 25.56° C | 88% | 1009.3 hPa | 0 mm | - | 25 W/m² | - |
| 1788349248 | 25.56° C | 88% | 1009.3 hPa | 0 mm | - | 22 W/m² | - |
| 1788348943 | 25.56° C | 88% | 1009.2 hPa | 0 mm | - | 18 W/m² | - |
| 1788348638 | 25.56° C | 88% | 1009 hPa | 0 mm | - | 13 W/m² | - |
| 1788348334 | 25.56° C | 88% | 1009.1 hPa | 0 mm | - | 10 W/m² | - |
| 1788348030 | 25° C | 88% | 1008.9 hPa | 0 mm | - | 8 W/m² | - |
| 1788347726 | 25° C | 89% | 1008.8 hPa | 0 mm | - | 6 W/m² | - |
| 1788347422 | 25° C | 89% | 1008.7 hPa | 0 mm | - | 5 W/m² | - |
| 1788347118 | 25° C | 89% | 1008.7 hPa | 0 mm | - | 3 W/m² | - |
| 1788346813 | 25° C | 89% | 1008.6 hPa | 0 mm | - | 2 W/m² | - |
| 1788346508 | 25° C | 89% | 1008.7 hPa | 0 mm | - | 1 W/m² | - |
| 1788346208 | 25° C | 89% | 1008.6 hPa | 0 mm | - | 1 W/m² | - |
| 1788345903 | 25° C | 89% | 1008.7 hPa | 0 mm | - | 0 W/m² | - |
* Rain latest hour (hover to see other rain measurements)
** Current wind speed in m/s (hover to see current wind gust speed)